Погода в Маразе

Погода в Маразе : погода сейчас, прогноз погоды и архив. Всё, что Вы хотите узнать о погоде в Маразе!

Поиск расширенной информации на нашем сайте:

Другие новости

Новости СМИ2

Главная страница сайта

Новости сайта

03.07.2017

Напоминаем, что на нашем специализированном сайте Метеоцентр.Азия вы можете получить высокодетализированные автоматические прогнозы погоды по пунктам России, СНГ и мира в авиационном формате (включающие направление и скорость ветра, видимость, явления погоды, количество и форму облачности, нижнюю и верхнюю границу облачности).


Погода в Маразе - сегодня

Время (UTC), дата Ветер
(°,м/с) 
Видим.   Явления Облачность Т
(°С)
Тd
(°С)
f(%) Тe
(°С)
Pmin
(гПа)
dP
(гПа)
Po
(мм)
O2
(г/м3)
Тmin Tmax R s Состояние
почвы
21 14.11.18 тихо ()   10 км  слаб. дождь  10/10 600 м 
[Ns]
+3.3 +2.3 93 +3  1025.3  -1  701  279           
00 15.11.18 050 (СВ) 10 км  {дождь}  10/10 600 м 
[Sc]
+3.9 +2.7 92 +3  1023.6  -1.3  700  278           
03 15.11.18 210 (ЮЗ) 10 км    10/10 600 м 
[Sc]
+4 +2.8 92 +5  1023.5  -0.1  700  277           
09 15.11.18 100 (В) 0500 м  туман  ?/?  
+5.9 +5.9 100 +5  1022.3  -0.3  700  275           
12 15.11.18 130 (ЮВ) 0500 м  слаб. дождь{туман}  ?/?  
+6.6 +6.6 100 +8  1021.2  -0.7  699  274           
15 15.11.18 тихо ()   0500 м  слаб. дождь{туман}  ?/?  
+6.9 +6.9 100 +7  1021.6  0.4  700  274           
18 15.11.18 тихо ()   0500 м  слаб. дождь{туман}  ?/?  
+7.1 +7.1 100 +7  1022.5  0.9  700  274    +7.3     
21 15.11.18 тихо ()   0500 м  слаб. дождь{туман}  ?/?  
+7.3 +7.3 100 +7  1022.1  -0.3  700  273           
00 16.11.18 тихо ()   0500 м  туман{дождь}  ?/?  
+7.5 +7.5 100 +8  1021.6  -0.4  700  273           
06 16.11.18 тихо ()   0200 м  слаб. дождь{туман}  ?/?  
+8.2 +8.2 100 +8  1023.4  0.4  701  273  +6.9       
09 16.11.18 090 (В) 10 км  {дождь, туман}  10/10 600 м 
[Frnb]
+9.4 +8.1 92 +9  1021.7  -1.2  700  271           
12 16.11.18 210 (ЮЗ) 20000 м  {дождь}  8/8 600 м 
[Frnb]
+12.3 +9.9 85 +15  1020.8  700  268           
15 16.11.18 тихо ()   10 км    10/10 600 м 
[Frnb]
+8.8 +7.3 90 +9  1021.7  -0.1  700  272           
18 16.11.18 290 (З) 10 км    9/9 600 м 
[Sc]
+9 +7.7 92 +9  1023.1  1.3  701  272    +13  0.7     
21 16.11.18 тихо ()   10 км    10/10 600 м 
[Frnb]
+8.9 +7.7 92 +9  1022.1  -0.9  700  272           
00 17.11.18 290 (З) 10 км    10/10 600 м 
[Sc]
+8.4 +7.1 92 +8  1022.5  0.2  701  273           
03 17.11.18 тихо ()   10 км    10/10 600 м 
[Sc]
+8.6 +7.3 92 +9  1023.5  0.9  701  273           
09 17.11.18 270 (З) 20000 м    10/10 600 м 
[Frnb]
+9.9 +8.6 92 +11  1022.5  -0.9  701  271           
12 17.11.18 280 (З) 20000 м    10/10 600 м 
[Frnb]
+9.6 +8.5 93 +10  1021.3  -1.2  700  271           
15 17.11.18 240 (ЮЗ) 0500 м  туман  ?/?  
+8.7 +8.7 100 +10  1023.2  1.5  701  272           
21 17.11.18 120 (ЮВ) 0500 м  туман  ?/?  
+7.6 +7.6 100 +9  1024.3  -0.2  702  274           
00 18.11.18 тихо ()   0500 м  туман  ?/?  
+6.3 +6.3 100 +6  1024.6  -0.1  702  275           
06 18.11.18 250 (З) 20000 м  {туман}  9/9 600 м 
[Frnb]
+6.9 +5.6 91 +7  1024.9  0.3  702  275  +5.6         
09 18.11.18 200 (Ю) 20000 м    8/8 600 м 
[Frnb]
+9.2 +6.4 83 +9  1022.9  -1  701  272           
12 18.11.18 190 (Ю) 20000 м    8/8 600 м 
[Frnb]
+8.8 +5.5 80 +10  1022.5  -0.6  701  272           
Время (UTC), дата Ветер
(°,м/с) 
Видим.   Явления Облачность Т
(°С)
Тd
(°С)
f(%) Тe
(°С)
Pmin
(гПа)
dP
(гПа)
Po
(мм)
O2
(г/м3)
Тmin Tmax R s Состояние
почвы

Для получения пояснительной информации подведите курсор к названию столбца.

ПОГОДА в Маразе - архив

Всё, что Вы хотите узнать о погоде в Маразе - удобно и подробно!

Выберите нужную дату (начиная с 1 января 2015* года) и нажмите кнопку "Найти".
Будут отображены архивные сводки погоды по пункту Мараза, начиная с указанной даты.


Отображать данные в формате CSV (для использования в таблицах Excel)


Внимание! Наш архив погоды предназначен исключительно для личного некоммерческого использования в познавательных целях. Если Вам необходимы официальные справки о состоянии погоды (для производственных, юридических, коммерческих и т.п. целей), обращайтесь в органы Росгидромета.

*Примечание: данная дата относится к архиву по метеостанциям СССР (Россия, СНГ, Балтия).
Архив по метеостанциям Зарубежной Европы и Азии (кроме Китая) хранится 10 дней, по другим регионам земного шара (Китай, Африка, Америка, Австралия, Океания) - 1 день.

Мараза - район местоположения метеостанции


Название, широта, долгота, высота метеостанции:
Мараза 40.5°ш. 48.9°д. 755 м над ур. моря [Азербайджан]

Дополнительная информация

В oтличие oт бoльшинства пoгoдных сайтoв мы публикуем пoдрoбную метеoинфoрмацию в детальнoм прoфессиoнальнoм фoрмате.

Характеристики температуры и влажнoсти вoздуха измеряются на высoте 2 м в тени вдали oт зданий и деревьев.
Скoрoсть ветра измеряется на высoте 10 м (на урoвне рoста челoвека скoрoсть ветра ниже в 1.5-2 раза). Если метеoстанция нахoдится в гoрoде или в лесу, тo скoрoсть ветра занижена на 2-4 м/с пo сравнению с oткрытым местoм. Скoрoсть ветра над акватoриями крупных рек и oзёр, а также на вершинах хoлмoв на 2-5 м/с выше, чем в oбычных услoвиях.
Атмoсфернoе давление в разных тoчках местнoсти мoжет значительнo oтличаться oт давления на метеoстанции, в зависимoсти oт услoвий рельефа (при пoдъёме на 10 м давление пoнижается примернo на 1 мм рт.ст.).